RH
55 57 46 37 30 37 54 58 81 35 40 42 48 50 65 70 59 56 54 62 48 50 48 53 61 68 77 77 82 83 82 80 94 90 92 100 100 100 100 94 97 68 41 44
50 46 44 25 22 33 35 42 44 35 32 45 51 59 69 71 71 89 99 98 97 96 85 86 91 94 97 96 90 93 79 77 98 100 99 100 100 99 100 99 54 44 46 49
78 64 50 28 31 33 34 32 35 34 32 48 54 56 67 84 93 100 100 93 78 86 100 98 98 99 98 98 100 98 86 100 99 99 99 99 99 99 90 54 52 51 53 49
91 78 59 32 29 34 33 40 32 29 32 39 49 53 62 88 98 99 86 52 46 66 92 100 98 98 99 98 100 99 99 98 99 98 98 98 98 90 71 58 56 50 49 37
89 70 33 23 34 35 38 52 48 31 31 31 36 53 60 88 92 85 48 40 42 45 53 83 97 98 100 95 98 100 98 99 98 98 98 97 93 73 65 62 58 52 40 39
83 79 64 34 34 36 40 39 43 54 33 35 33 42 56 73 91 60 39 42 43 43 43 47 55 92 97 99 98 98 98 97 94 61 64 66 63 54 50 49 46 37 38 47
92 90 50 30 36 42 39 48 52 79 74 36 39 37 49 58 68 42 44 45 46 45 44 42 43 52 80 77 86 91 93 86 54 57 53 46 47 47 47 47 45 44 52 56
100 98 75 46 47 49 47 49 93 86 64 38 46 44 42 42 40 41 47 48 50 49 47 44 41 38 39 40 38 41 45 44 46 46 51 57 58 54 47 46 47 54 61 60
56 40 47 52 58 53 49 49 75 70 64 38 52 52 51 47 40 45 50 52 53 54 52 49 45 41 38 35 35 36 38 40 44 48 52 52 49 47 47 48 52 60 65 67
78 60 48 54 60 59 53 48 54 83 55 63 50 70 71 81 60 51 48 53 55 57 59 58 52 46 42 42 40 41 43 45 49 54 54 52 51 52 51 51 56 64 70 70
79 73 52 54 58 58 54 57 56 68 63 59 64 58 73 88 89 89 77 58 63 61 70 84 82 72 61 53 49 48 48 50 50 51 52 54 55 54 54 56 61 66 65 67
62 70 78 63 60 58 54 54 57 61 78 68 82 55 62 77 89 92 92 86 74 75 93 90 78 67 61 56 53 53 54 54 56 57 57 59 60 62 61 61 62 65 70 74
19 18 19 22 58 61 58 54 59 73 83 74 53 55 51 56 71 100 89 92 93 95 94 97 93 92 90 81 70 65 65 72 76 70 67 68 69 70 71 70 72 76 78 78
57 54 41 27 21 24 55 55 52 55 81 95 64 52 52 52 54 60 83 92 89 93 96 94 95 95 96 94 88 84 81 78 76 76 77 79 81 83 83 83 82 82 79 74
49 54 52 48 43 63 60 56 48 43 75 94 94 59 52 52 58 66 64 61 63 70 92 92 89 85 84 85 85 89 90 84 83 84 88 90 91 90 88 87 85 81 74 65
60 67 64 63 60 52 47 44 84 58 73 86 97 80 64 66 66 64 62 61 63 68 72 86 81 78 82 88 93 94 91 89 90 91 91 91 89 87 88 88 83 74 68 60
64 50 47 52 55 58 61 54 42 44 68 60 98 92 73 69 69 70 68 65 67 72 71 75 79 82 84 88 92 94 94 94 94 94 94 89 86 87 86 82 75 70 62 45
62 53 58 61 50 52 57 60 47 36 66 56 93 95 80 74 70 72 77 71 74 69 68 71 74 79 83 89 94 95 95 94 93 91 89 86 87 89 85 77 74 67 50 48
78 78 78 70 70 61 58 82 96 78 62 75 92 97 93 80 75 74 79 77 70 72 76 78 82 84 88 92 94 94 88 82 78 80 81 84 83 79 72 72 66 50 50 68
78 77 91 84 68 56 60 74 78 68 70 76 90 98 94 90 84 72 69 70 76 83 81 82 85 90 92 93 88 79 69 68 66 69 71 73 71 70 72 64 53 56 70 71
80 81 94 81 76 51 88 100 97 90 87 81 92 99 95 95 94 90 91 96 84 74 78 83 89 90 79 68 63 60 58 58 62 64 66 65 66 63 55 55 66 77 75 71
95 96 98 98 95 70 88 80 90 96 84 92 98 96 98 95 96 97 96 96 89 88 86 77 63 58 53 51 54 55 57 57 56 57 56 53 52 51 56 75 84 81 75 73
98 99 98 97 99 85 76 76 94 98 98 98 99 96 97 96 96 97 97 94 85 76 61 51 48 53 64 67 59 52 46 39 37 39 40 41 49 66 81 88 86 84 84 84
96 96 96 100 99 94 92 95 97 97 97 97 97 96 96 96 96 96 94 94 83 57 53 61 72 74 70 60 47 36 27 26 30 36 45 54 70 80 84 88 84 84 81 64
97 96 96 95 96 96 96 96 96 97 97 96 96 96 95 95 96 96 95 95 89 86 81 78 74 63 45 31 26 28 30 34 40 54 64 69 72 74 75 68 56 48 45 47
97 96 96 96 96 96 95 96 96 96 96 95 95 94 94 94 96 96 96 95 95 82 65 50 37 28 24 24 28 37 48 58 62 62 60 55 46 40 41 42 43 45 43 38
95 96 96 96 96 95 96 96 96 96 96 96 96 98 97 95 94 92 82 64 47 32 24 21 23 26 33 44 53 54 46 36 28 25 27 30 32 34 34 34 34 35 35 36
Wind_Speed
30 31 35 31 30 29 29 26 22 26 31 23 20 19 18 13 13 12 6 4 5 8 13 17 19 19 20 21 22 17 21 22 22 21 20 21 22 26 27 15 15 8 9 7
44 28 19 33 28 9 10 14 22 19 25 20 18 16 16 10 9 9 9 12 12 12 13 10 10 10 17 21 35 32 26 19 22 25 33 27 28 26 22 17 14 13 10 9
21 21 32 19 3 14 13 15 17 18 16 14 12 12 11 7 8 8 10 14 17 14 6 7 7 2 8 9 16 19 25 25 27 25 28 30 32 25 19 16 14 12 11 10
23 26 4 3 18 5 8 14 17 12 11 11 9 9 8 7 5 9 11 11 14 22 23 6 3 6 12 15 18 14 21 24 26 29 31 27 24 21 17 14 12 10 10 8
8 7 21 16 5 8 6 4 13 13 11 10 9 7 7 2 4 6 9 11 13 14 16 24 12 15 17 11 20 18 20 23 24 22 21 20 18 16 16 14 13 11 9 8
14 5 5 3 7 14 4 3 11 14 13 10 9 7 4 2 2 4 6 8 10 11 12 13 14 20 18 17 23 26 25 20 19 16 16 14 18 16 13 10 7 8 7 7
27 9 12 11 8 4 1 6 10 11 14 12 7 7 4 1 2 3 5 6 7 9 10 9 10 11 17 16 18 18 16 17 19 17 15 13 11 11 11 10 9 8 7 6
17 9 12 4 5 3 7 7 8 8 11 7 4 5 3 1 3 2 2 4 6 7 8 7 8 9 9 12 14 15 16 15 14 13 12 11 11 10 9 8 8 7 6 7
14 7 10 9 10 7 9 7 7 5 7 5 0 3 4 3 3 3 2 1 2 4 5 6 6 7 9 9 10 11 11 11 11 11 11 10 9 7 7 8 8 8 8 10
21 21 27 20 13 12 14 14 9 8 9 6 8 6 9 9 9 6 7 5 2 1 4 7 7 7 7 10 10 11 11 11 10 10 8 7 7 7 7 8 9 9 11 14
34 32 33 30 32 27 18 10 13 12 13 18 12 16 14 12 7 9 14 8 7 5 5 6 4 5 4 6 8 8 9 9 9 8 7 6 6 8 9 9 10 12 15 18
53 38 33 30 26 24 23 15 11 14 10 12 18 17 19 17 14 11 9 16 13 13 12 10 7 4 3 2 4 5 5 5 5 5 6 8 9 10 10 11 13 15 16 17
44 40 46 52 42 32 29 24 20 17 23 11 14 16 17 20 17 16 15 11 11 9 5 7 10 9 8 8 8 7 7 8 10 11 10 10 11 11 12 13 14 14 16 19
42 38 38 31 37 40 44 41 35 24 21 23 14 17 18 19 21 19 18 17 17 13 10 8 7 8 7 7 7 7 8 9 9 9 10 11 12 12 12 12 14 16 19 22
33 34 35 33 35 30 30 33 36 34 23 20 21 16 18 19 18 19 18 19 19 18 11 7 7 8 8 8 9 10 11 12 12 12 12 11 11 11 12 14 17 19 22 25
36 36 31 29 30 32 38 41 33 28 22 18 22 17 18 18 17 18 19 18 15 14 17 14 12 11 11 11 10 10 11 11 10 11 11 11 12 13 15 17 20 22 25 28
31 28 23 24 22 22 23 26 41 34 26 20 21 21 18 18 17 16 17 17 17 19 20 18 17 15 13 12 12 11 10 11 11 12 12 13 14 16 18 20 22 25 28 29
26 21 25 28 29 28 22 23 29 37 36 24 26 23 19 19 18 17 18 18 18 18 18 17 15 14 13 13 12 11 12 12 12 13 14 15 17 18 20 23 25 27 28 26
24 23 21 26 26 28 24 22 26 26 28 25 27 24 20 20 20 19 19 19 17 16 15 15 15 15 15 14 13 12 12 13 14 15 16 18 20 22 24 26 28 28 25 22
32 26 23 23 26 27 28 23 27 23 28 26 27 27 22 19 21 19 19 19 17 17 17 17 17 16 14 14 13 12 13 15 16 17 19 21 23 25 26 28 28 25 22 22
35 31 34 26 23 23 23 18 19 25 26 26 28 26 20 20 21 21 22 18 16 16 17 16 15 14 13 13 13 13 15 17 18 20 22 24 26 27 28 28 25 23 23 24
7 13 20 27 26 27 24 19 20 25 28 25 23 25 24 26 26 22 21 19 17 16 15 14 13 13 12 12 14 16 18 20 22 24 25 27 28 28 27 25 24 24 25 26
5 3 2 6 21 28 28 20 18 22 24 25 24 24 23 21 19 17 16 16 16 15 14 14 13 12 13 15 18 19 22 24 26 27 28 28 28 27 25 24 25 27 29 29
6 1 2 5 7 12 16 21 20 23 25 25 24 24 21 20 20 20 19 16 13 13 13 13 13 15 17 19 21 24 26 27 28 28 27 27 26 25 25 27 29 31 32 32
9 9 8 12 12 15 18 19 21 23 24 25 25 26 24 22 16 15 15 13 13 13 14 15 17 19 21 23 25 26 27 27 26 25 25 26 27 29 30 31 33 34 33 32
22 22 20 20 24 25 26 26 27 27 25 23 22 19 17 15 12 11 12 12 13 14 16 18 20 22 23 24 25 25 25 25 25 26 28 30 31 32 33 33 33 32 33 32
20 19 20 21 21 21 19 16 14 14 13 11 10 9 9 9 8 9 11 13 15 17 18 20 21 21 22 22 22 23 25 27 29 30 31 32 32 32 32 31 30 28 27 25
Wind_Direction
291 295 302 301 303 310 290 278 255 297 308 336 338 340 333 346 349 338 344 336 284 261 251 249 250 249 243 236 233 205 205 206 200 195 203 196 188 202 206 196 201 169 198 200
299 312 311 309 313 303 307 299 289 310 324 336 335 336 336 345 11 33 17 13 354 331 300 278 283 269 258 242 226 225 216 201 205 211 200 182 192 196 189 184 173 185 192 208
290 296 310 300 341 331 327 331 313 310 328 328 342 338 337 347 61 57 28 40 38 15 342 288 262 220 175 156 160 184 204 208 207 198 180 182 199 188 162 166 164 184 190 200
280 306 275 211 325 5 17 28 358 350 342 338 341 333 344 346 81 72 69 55 49 46 45 49 174 173 132 140 169 210 185 195 195 179 184 191 174 145 159 164 175 186 191 201
250 249 280 289 233 358 4 19 3 360 354 346 334 327 333 57 78 38 55 64 54 55 61 62 67 98 132 126 148 161 187 161 178 177 168 156 130 158 166 174 179 179 188 205
225 239 245 254 307 316 314 146 356 1 351 344 337 318 315 289 164 111 77 59 55 57 64 71 72 73 102 146 151 155 159 150 137 145 139 146 162 169 173 174 168 194 210 223
217 240 268 271 293 311 103 332 353 354 328 325 329 332 320 184 177 126 101 79 58 55 60 69 85 92 93 103 109 126 131 137 161 162 169 163 163 167 178 176 186 201 221 249
212 212 261 86 105 341 290 314 357 4 345 303 338 349 343 114 158 166 106 72 62 58 62 70 89 101 121 132 142 143 149 154 149 152 147 151 161 171 177 189 205 223 250 280
222 223 192 210 322 291 304 296 272 327 358 324 52 47 37 329 273 247 244 185 90 69 75 89 99 117 130 132 133 136 141 149 152 154 159 166 173 184 201 214 229 246 268 288
264 247 250 264 283 290 294 289 257 277 233 274 229 228 291 292 281 264 260 258 263 108 101 96 102 112 132 140 144 147 152 155 158 162 167 175 188 209 227 242 256 274 288 294
256 260 254 251 264 272 258 267 260 261 280 242 253 244 257 262 278 269 234 246 252 242 218 238 173 123 135 149 152 157 159 163 170 176 183 197 222 238 250 261 273 284 289 293
257 261 256 250 242 239 239 260 296 285 264 258 232 247 243 243 266 294 287 223 228 242 272 192 167 165 158 170 166 167 172 183 193 205 224 238 246 255 265 274 278 282 289 299
272 269 266 259 252 243 244 254 284 299 273 250 243 238 239 246 251 257 278 283 257 272 290 207 186 178 172 174 182 191 200 212 220 225 233 244 254 261 266 270 277 290 303 309
285 282 270 266 265 252 256 261 264 270 270 256 252 237 239 246 255 250 254 266 262 264 282 236 230 202 202 193 198 208 219 228 236 242 246 250 254 260 269 281 294 300 303 306
295 287 281 277 267 253 247 256 256 254 253 252 247 248 239 243 249 248 232 236 244 242 242 215 202 200 199 208 220 228 235 238 239 241 247 255 265 275 287 296 300 303 306 310
302 296 287 275 268 262 256 248 243 226 231 245 248 244 242 239 237 242 233 225 235 246 238 238 227 220 218 222 235 239 242 245 249 256 264 271 280 290 294 297 300 304 308 311
285 281 279 273 271 265 262 253 246 232 225 239 241 226 241 233 236 238 236 224 216 223 225 228 226 227 229 236 249 254 257 258 262 265 270 280 287 290 294 296 300 304 308 309
283 269 267 261 246 241 242 252 244 226 232 236 230 219 233 236 238 236 232 222 218 221 223 228 231 232 237 248 256 260 261 260 263 269 277 282 286 289 292 296 300 304 306 304
285 272 267 258 249 233 219 226 229 220 217 217 222 223 223 237 238 229 226 216 213 214 217 222 225 230 240 247 252 254 257 262 269 273 278 282 287 291 293 297 301 303 302 299
275 274 259 276 247 230 221 222 224 223 212 211 223 232 215 229 227 212 214 206 201 209 215 221 227 234 240 243 245 248 256 262 267 274 280 284 286 290 294 298 300 299 296 296
267 264 252 256 247 224 213 193 208 215 213 211 227 225 208 208 206 194 202 206 200 210 215 218 224 228 230 236 244 251 258 266 273 279 283 285 288 292 295 296 295 292 294 296
258 247 242 241 230 210 204 206 210 205 204 210 223 206 194 197 203 201 186 190 194 199 204 208 217 225 231 240 254 261 268 275 279 281 283 286 288 291 292 291 290 292 293 295
64 85 105 201 210 205 212 229 224 214 208 217 210 202 191 191 181 179 187 185 182 188 199 211 218 227 246 260 265 270 274 277 278 281 284 287 288 289 289 288 289 291 293 295
42 40 164 192 208 216 228 227 205 187 184 179 177 171 165 169 173 165 166 179 189 198 214 227 241 255 264 267 271 274 276 279 281 283 284 286 287 288 287 288 289 290 293 296
73 98 120 137 161 163 164 156 158 156 159 160 158 153 152 154 158 177 181 193 210 227 242 255 262 267 271 273 275 277 278 279 281 283 284 286 286 287 288 289 291 293 295 294
83 94 107 116 118 121 125 129 134 132 135 142 148 155 164 174 189 208 221 231 242 251 259 264 269 273 276 278 278 278 280 282 284 285 286 286 287 288 289 291 292 293 293 293
87 89 93 101 105 109 111 113 112 117 124 138 159 176 192 204 216 231 244 252 258 263 269 273 275 276 276 276 278 281 283 284 285 285 286 286 287 289 291 291 292 292 292 292